Weather History for KDRA - August, 2013

Change the Weather History Date:

Friday, August 23, 2013

  Actual Average Record
Temperature  
Mean Temperature 85 °F -  
Max Temperature 97 °F 96 °F 104 °F (1998)
Min Temperature 73 °F 67 °F 62 °F (2001)
Cooling Degree Days 20    
Growing Degree Days 35 (Base 50)    
Moisture  
Dew Point 46 °F    
Average Humidity 24    
Maximum Humidity 36    
Minimum Humidity 11    
Precipitation  
Precipitation 0.00 in - - ()
Sea Level Pressure  
Sea Level Pressure 29.74 in    
Wind  
Wind Speed 9 mph (South)    
Max Wind Speed 20 mph    
Max Gust Speed 29 mph    
Visibility 10 miles    
Events      
Averages and records for this station are not official NWS values.
T = Trace of Precipitation, MM = Missing Value Source: NWS Daily Summary

Daily Weather History Graph

Daily Weather History Graph

Search for Another Location

Airport or City:

Trip Planner

Search our weather history database for the weather conditions in past years. The results will help you decide how hot, cold, wet, or windy it might be!

Date:

Astronomy

Aug. 23, 2013 Rise Set
Actual Time 6:08 AM PDT 7:24 PM PDT
Civil Twilight 5:41 AM PDT 7:51 PM PDT
Nautical Twilight 5:09 AM PDT 8:23 PM PDT
Astronomical Twilight 4:35 AM PDT 8:56 PM PDT
Moon 8:52 PM PDT (8/23) 9:01 AM PDT (8/23)
Length of Visible Light 14h 09m
Length of Day
13h 15m
Waning Gibbous, 91% of the Moon is Illuminated
Aug 23
Waning Gibbous
Aug 28
Last Quarter
Sep 5
New
Sep 12
First Quarter
Sep 19
Full

Hourly Weather History & Observations

Time (PDT) Temp. Dew Point Humidity Pressure Visibility Wind Dir Wind Speed Gust Speed Precip Events Conditions
12:52 AM 82.0 °F 48.0 °F 30% 29.77 in 10.0 mi West 6.9 mph - N/A   Clear
1:52 AM 82.0 °F 46.0 °F 28% 29.75 in 10.0 mi WSW 10.4 mph - N/A   Clear
2:52 AM 82.0 °F 45.0 °F 27% 29.76 in 10.0 mi North 4.6 mph - N/A   Clear
3:52 AM 79.0 °F 46.0 °F 31% 29.77 in 10.0 mi NW 6.9 mph - N/A   Clear
4:52 AM 78.1 °F 45.0 °F 31% 29.78 in 10.0 mi North 6.9 mph - N/A   Clear
5:52 AM 75.0 °F 46.0 °F 36% 29.78 in 10.0 mi Calm Calm - N/A   Clear
6:52 AM 75.0 °F 46.0 °F 36% 29.80 in 10.0 mi Calm Calm - N/A   Clear
7:52 AM 77.0 °F 46.9 °F 34% 29.81 in 10.0 mi NNE 3.5 mph - N/A   Clear
8:52 AM 82.0 °F 50.0 °F 33% 29.79 in 10.0 mi SE 12.7 mph - N/A   Clear
9:52 AM 87.1 °F 45.0 °F 23% 29.79 in 10.0 mi SE 11.5 mph - N/A   Clear
10:52 AM 89.1 °F 44.1 °F 21% 29.79 in 10.0 mi SE 6.9 mph 24.2 mph N/A   Clear
11:52 AM 91.9 °F 41.0 °F 17% 29.77 in 10.0 mi SW 10.4 mph 27.6 mph N/A   Clear
12:52 PM 95.0 °F 43.0 °F 17% 29.74 in 10.0 mi South 16.1 mph 24.2 mph N/A   Clear
1:52 PM 96.1 °F 42.1 °F 15% 29.72 in 10.0 mi South 18.4 mph 28.8 mph N/A   Clear
2:52 PM 95.0 °F 42.1 °F 16% 29.70 in 10.0 mi SSW 17.3 mph 21.9 mph N/A   Clear
3:52 PM 93.9 °F 44.1 °F 18% 29.68 in 10.0 mi South 12.7 mph 21.9 mph N/A   Clear
4:52 PM 93.9 °F 46.0 °F 19% 29.68 in 10.0 mi South 12.7 mph 23.0 mph N/A   Partly Cloudy
5:52 PM 93.0 °F 42.1 °F 17% 29.67 in 10.0 mi SSW 12.7 mph 24.2 mph N/A   Clear
6:52 PM 89.1 °F 48.0 °F 24% 29.68 in 10.0 mi South 19.6 mph 25.3 mph N/A   Clear
7:52 PM 88.0 °F 44.1 °F 22% 29.68 in 10.0 mi South 11.5 mph 20.7 mph N/A   Clear
8:52 PM 86.0 °F 50.0 °F 29% 29.68 in 10.0 mi South 13.8 mph 23.0 mph N/A   Clear
9:52 PM 84.9 °F 46.9 °F 27% 29.70 in 10.0 mi SE 4.6 mph - N/A   Clear
10:52 PM 82.0 °F 48.0 °F 30% 29.71 in 10.0 mi SSE 6.9 mph - N/A   Clear
11:52 PM 84.0 °F 48.9 °F 29% 29.72 in 10.0 mi South 12.7 mph - N/A   Clear